AVA7249 EPKK-SKBO

Flight info

Callsign AVA7249
Flight time N/A
Altitude FL300
Route EPKK SID OMFOL1J T738 LASIS L986 SAS L980 RKN L602 TENLI L980 FLEVO L602 NALAX L46 GETNO DCT IOM DCT ERNAN DCT REVNU DCT RESNO NATB NEEKO N612A ALLEX Q822 ENE Q480 BEEKN Q97 YAZUU Q167 ZIZZI Q445 TBONN Q97 CAANO Q167 PAJET Q445 ZJAAY Q97 KALDA Q161 CHIEZ Y291 SAGGY AR19 JRDAN AR3 JAZZI Y307 ADUCI AR3 CARPX Y307 CASPR AR3 NUCAR Y307 ENAMO UM218 LOKOV UG444 EJA UQ119 ILSEV STAR SKBO
Aircraft B744/H-S/N

Departure

Time 2026-05-04 11:16
Airport Kraków John Paul II International Airport (EPKK)

Arrival

Time N/A
Airport El Dorado International Airport (SKBO)
Time Latitude Longitude Altitude Speed Heading
2026-05-04 11:01 50.07347 19.80334 809 ft 0 kts 168°
2026-05-04 11:10 50.07388 19.80203 809 ft 0 kts 78°
2026-05-04 11:12 50.07391 19.80230 809 ft 5 kts 78°
2026-05-04 11:12 50.07410 19.80307 809 ft 10 kts 56°
2026-05-04 11:12 50.07481 19.80373 809 ft 15 kts 20°
2026-05-04 11:12 50.07593 19.80414 809 ft 19 kts 347°
2026-05-04 11:13 50.07736 19.80369 809 ft 23 kts 348°
2026-05-04 11:13 50.07822 19.80339 809 ft 0 kts 347°
2026-05-04 11:13 50.07833 19.80335 809 ft 4 kts 347°
2026-05-04 11:13 50.07879 19.80320 809 ft 9 kts 347°
2026-05-04 11:14 50.07956 19.80292 809 ft 13 kts 346°
2026-05-04 11:14 50.08006 19.80217 809 ft 10 kts 266°
2026-05-04 11:14 50.08001 19.80154 809 ft 0 kts 259°
2026-05-04 11:16 50.06849 19.71952 2353 ft 208 kts 258°
2026-05-04 11:16 50.06520 19.69674 3016 ft 227 kts 258°
2026-05-04 11:16 50.06101 19.67235 3568 ft 238 kts 256°
2026-05-04 11:17 50.05636 19.64716 4111 ft 248 kts 255°
2026-05-04 11:17 50.05138 19.62146 4673 ft 252 kts 255°
2026-05-04 11:19 50.01479 19.42857 8549 ft 267 kts 255°
2026-05-04 11:19 50.01245 19.40001 9057 ft 269 kts 268°
2026-05-04 11:19 50.01540 19.37142 9677 ft 271 kts 280°
2026-05-04 11:19 50.02077 19.34336 10241 ft 272 kts 286°
2026-05-04 11:20 50.02723 19.31527 10717 ft 280 kts 288°
2026-05-04 11:20 50.03427 19.28667 11183 ft 289 kts 289°
2026-05-04 11:20 50.04170 19.25715 11641 ft 297 kts 290°
2026-05-04 11:20 50.04939 19.22675 12107 ft 307 kts 290°
2026-05-04 11:22 50.10998 18.98728 15307 ft 370 kts 290°
2026-05-04 11:22 50.12007 18.95025 15760 ft 374 kts 290°
2026-05-04 11:23 50.13042 18.91279 16217 ft 378 kts 291°
2026-05-04 11:23 50.14088 18.87515 16669 ft 381 kts 291°
2026-05-04 11:24 50.23871 18.67494 19058 ft 398 kts 309°
2026-05-04 11:25 50.25641 18.64193 19383 ft 400 kts 307°
2026-05-04 11:25 50.27318 18.60705 19714 ft 401 kts 303°
2026-05-04 11:25 50.28856 18.57075 20041 ft 403 kts 300°
2026-05-04 11:26 50.31544 18.49373 20709 ft 406 kts 294°
2026-05-04 11:27 50.38272 18.19958 23002 ft 418 kts 285°
2026-05-04 11:28 50.39079 18.15612 23328 ft 420 kts 285°
2026-05-04 11:28 50.39886 18.11195 23658 ft 422 kts 285°
2026-05-04 11:28 50.40681 18.06793 23983 ft 424 kts 285°
2026-05-04 11:28 50.41480 18.02336 24311 ft 426 kts 285°
2026-05-04 11:29 50.42279 17.97865 24639 ft 428 kts 285°
2026-05-04 11:29 50.43080 17.93375 24968 ft 429 kts 285°
2026-05-04 11:29 50.43591 17.90514 25176 ft 431 kts 285°
2026-05-04 11:29 50.43921 17.88667 25310 ft 431 kts 285°
2026-05-04 11:31 50.51953 17.57662 27606 ft 450 kts 294°
2026-05-04 11:33 50.61185 17.25760 29365 ft 470 kts 293°
2026-05-04 11:33 50.62518 17.21071 29565 ft 472 kts 293°
2026-05-04 11:33 50.63851 17.16363 29758 ft 473 kts 293°
2026-05-04 11:34 50.65184 17.11635 29902 ft 473 kts 293°
2026-05-04 11:34 50.66511 17.06909 30001 ft 474 kts 293°
2026-05-04 11:34 50.69161 16.97405 30009 ft 476 kts 292°
2026-05-04 11:35 50.71794 16.87821 30008 ft 477 kts 292°
2026-05-04 11:35 50.74413 16.78217 30005 ft 478 kts 291°
2026-05-04 11:36 50.77016 16.68566 30005 ft 479 kts 291°
2026-05-04 11:36 50.79607 16.58882 30004 ft 479 kts 291°
2026-05-04 11:37 50.82184 16.49196 30004 ft 479 kts 291°
2026-05-04 11:37 50.84749 16.39486 30004 ft 479 kts 292°
2026-05-04 11:38 50.87308 16.29772 30004 ft 479 kts 292°
2026-05-04 11:38 50.89866 16.20050 30005 ft 479 kts 292°
2026-05-04 11:39 50.92519 16.10391 30006 ft 479 kts 295°
2026-05-04 11:41 51.05053 15.79158 29984 ft 482 kts 303°
2026-05-04 11:41 51.08877 15.70409 29984 ft 483 kts 302°
2026-05-04 11:42 51.12676 15.61622 29986 ft 483 kts 302°
2026-05-04 11:42 51.16471 15.52834 29986 ft 483 kts 302°
2026-05-04 11:43 51.20270 15.44027 29986 ft 483 kts 302°
2026-05-04 11:43 51.24067 15.35202 29986 ft 483 kts 302°
2026-05-04 11:44 51.27857 15.26370 29986 ft 484 kts 302°
2026-05-04 11:44 51.31644 15.17526 29982 ft 482 kts 302°
2026-05-04 11:45 51.35385 15.08750 29982 ft 481 kts 302°
2026-05-04 11:45 51.39096 14.99881 29981 ft 480 kts 299°
2026-05-04 11:46 51.41897 14.90210 29990 ft 479 kts 288°
2026-05-04 11:46 51.43837 14.80062 29981 ft 477 kts 283°
2026-05-04 11:47 51.45350 14.69773 29974 ft 475 kts 281°
2026-05-04 11:47 51.46701 14.59446 29973 ft 473 kts 280°
2026-05-04 11:48 51.48026 14.49140 29973 ft 473 kts 280°
2026-05-04 11:48 51.49391 14.38863 29978 ft 472 kts 280°
2026-05-04 11:49 51.50873 14.28623 29981 ft 472 kts 283°
2026-05-04 11:49 51.52909 14.18626 29981 ft 473 kts 288°
2026-05-04 11:50 51.55308 14.08815 29981 ft 473 kts 290°
2026-05-04 11:50 51.57857 13.99078 29980 ft 474 kts 290°
2026-05-04 11:51 51.60439 13.89370 29988 ft 472 kts 291°
2026-05-04 11:51 51.63009 13.79701 29987 ft 471 kts 291°
2026-05-04 11:52 51.65558 13.70017 29987 ft 470 kts 291°
2026-05-04 11:52 51.68069 13.60355 29988 ft 470 kts 291°
2026-05-04 11:53 51.70567 13.50639 29984 ft 469 kts 290°
2026-05-04 11:53 51.73027 13.40973 29982 ft 467 kts 289°
2026-05-04 11:55 51.81729 13.01734 29991 ft 464 kts 282°
2026-05-04 11:56 51.83279 12.91653 29988 ft 463 kts 281°
2026-05-04 11:56 51.84744 12.81566 29988 ft 462 kts 281°
2026-05-04 11:57 51.86188 12.71452 29988 ft 462 kts 281°
2026-05-04 11:57 51.87633 12.61364 29986 ft 462 kts 281°
2026-05-04 11:58 51.89092 12.51264 29986 ft 463 kts 281°
2026-05-04 11:58 51.90575 12.41143 29986 ft 463 kts 281°
2026-05-04 11:59 51.92069 12.31019 29986 ft 463 kts 281°
2026-05-04 11:59 51.93561 12.20881 29986 ft 463 kts 281°
2026-05-04 12:00 51.95051 12.10732 29990 ft 463 kts 280°
2026-05-04 12:00 51.96523 12.00596 29990 ft 463 kts 280°
2026-05-04 12:01 51.97984 11.90439 29990 ft 463 kts 280°
2026-05-04 12:02 52.03009 11.54886 29990 ft 462 kts 279°
2026-05-04 12:03 52.04418 11.44727 29990 ft 462 kts 279°
2026-05-04 12:03 52.05820 11.34552 29990 ft 462 kts 279°
2026-05-04 12:04 52.07220 11.24394 29991 ft 461 kts 279°
2026-05-04 12:04 52.08606 11.14293 29989 ft 460 kts 279°
2026-05-04 12:05 52.09986 11.04139 29989 ft 459 kts 279°
2026-05-04 12:05 52.11347 10.94030 29990 ft 459 kts 279°
2026-05-04 12:06 52.12614 10.83890 29991 ft 458 kts 277°
2026-05-04 12:06 52.13588 10.73696 30003 ft 456 kts 275°
2026-05-04 12:07 52.14395 10.63512 30000 ft 454 kts 274°
2026-05-04 12:07 52.15127 10.53318 30000 ft 453 kts 273°
2026-05-04 12:08 52.15827 10.43145 30001 ft 453 kts 273°
2026-05-04 12:08 52.16514 10.32977 30003 ft 452 kts 273°
2026-05-04 12:09 52.17193 10.22840 30002 ft 451 kts 273°
2026-05-04 12:09 52.17873 10.12698 30003 ft 451 kts 273°
2026-05-04 12:10 52.18551 10.02569 30003 ft 451 kts 273°
2026-05-04 12:10 52.19224 9.92437 30003 ft 451 kts 273°
2026-05-04 12:11 52.19893 9.82307 30005 ft 450 kts 273°
2026-05-04 12:11 52.20552 9.72186 30004 ft 450 kts 273°
2026-05-04 12:12 52.21201 9.62064 30004 ft 450 kts 272°
2026-05-04 12:12 52.21840 9.51942 30004 ft 450 kts 272°
2026-05-04 12:14 52.18910 7.98809 30010 ft 446 kts 264°
2026-05-04 12:15 52.17303 7.59098 30006 ft 438 kts 264°
2026-05-04 12:15 52.15460 7.19716 30004 ft 434 kts 264°
2026-05-04 12:16 52.14899 6.80629 30007 ft 438 kts 277°
2026-05-04 12:16 52.21661 6.42169 30005 ft 446 kts 282°
2026-05-04 12:17 52.29222 6.03664 30010 ft 449 kts 285°
2026-05-04 12:17 52.37489 5.65264 30003 ft 449 kts 285°
2026-05-04 12:18 52.47700 5.27725 30003 ft 453 kts 290°
2026-05-04 12:18 52.58473 4.89643 30005 ft 466 kts 290°
2026-05-04 12:19 52.69059 4.51326 29990 ft 455 kts 292°
2026-05-04 12:19 52.81776 4.15412 30006 ft 455 kts 296°
2026-05-04 12:20 52.94125 3.78858 30010 ft 455 kts 295°
2026-05-04 12:20 53.06296 3.42023 30019 ft 460 kts 295°
2026-05-04 12:21 53.11350 3.22619 30023 ft 460 kts 283°
2026-05-04 12:21 53.14231 3.01842 30029 ft 462 kts 279°
2026-05-04 12:21 53.19322 2.59648 30023 ft 469 kts 280°
2026-05-04 12:22 53.24706 2.16927 30034 ft 473 kts 280°
2026-05-04 12:22 53.29987 1.73695 30040 ft 478 kts 280°
2026-05-04 12:23 53.35650 1.30169 30047 ft 481 kts 283°
2026-05-04 12:23 53.41942 0.86430 30054 ft 486 kts 283°
2026-05-04 12:24 53.48090 0.41970 30068 ft 496 kts 284°
2026-05-04 12:24 53.54171 -0.03396 30075 ft 500 kts 284°
2026-05-04 12:25 53.60137 -0.49190 30075 ft 505 kts 285°
2026-05-04 12:25 53.65961 -0.95456 30077 ft 508 kts 285°
2026-05-04 12:26 53.71641 -1.42241 30078 ft 510 kts 285°
2026-05-04 12:26 53.76961 -1.89308 30075 ft 511 kts 284°
2026-05-04 12:27 53.81929 -2.36545 30069 ft 511 kts 283°
2026-05-04 12:27 53.86699 -2.83737 30069 ft 511 kts 283°
2026-05-04 12:28 53.91292 -3.31202 30083 ft 508 kts 282°
2026-05-04 12:28 53.95984 -3.78118 30087 ft 506 kts 283°